Regional Weather Roundup
Issued by NWS

Home | Current Version | Previous Version | Text Only | Print | Product List | Glossary Off
Versions: 1 2 3 4 5 6 7 8 9 10 11 12 13 14 15 16 17 18 19 20 21 22 23 24 25 26 27 28 29 30 31 32 33 34 35 36 37 38 39 40 41 42 43 44 45 46 47 48 49 50

000
ASUS43 KIND 230909
RWRIN

WEATHER ROUNDUP FOR INDIANA
NATIONAL WEATHER SERVICE INDIANAPOLIS IN
500 AM EDT TUE MAY 23 2017

NOTE: "FAIR" INDICATES FEW OR NO CLOUDS BELOW 12,000 FEET WITH NO
SIGNIFICANT WEATHER AND/OR OBSTRUCTIONS TO VISIBILITY.

* - STATION DOES NOT REPORT WEATHER SUCH AS PRECIPITATION OR FOG.

+ - STATION NOT QUALITY CONTROLLED BY THE NATIONAL WEATHER SERVICE.
    USE DATA WITH CAUTION...ESPECIALLY DEWPOINT AND RELATIVE
    HUMIDITY OBSERVATIONS.

INZ001>003-010>013-019-020-231000-
NORTHWEST INDIANA

CITY           SKY/WX    TMP DP  RH WIND       PRES   REMARKS
GARY /AIRPORT/ CLOUDY    62  53  72 CALM      29.85S
KNOX *+        CLOUDY    57  46  67 S5        29.87F
LA PORTE +     CLOUDY    58  53  81 S6        29.87F
MICHIGAN CITY+ CLOUDY    59  52  77 S6        29.85F
MONTICELLO +   CLOUDY    59  52  78 CALM      29.88S
RENSSELAER +   CLOUDY    59  54  82 S3        29.88F
VALPARAISO     CLOUDY    60  54  80 S9        29.86F

$$

LMZ046-743>745-231000-
SOUTHERN LAKE MICHIGAN

STATION/POSITION TIME  TEMP    WIND        PRES    WAVE
                       AIR SEA DIR/SP/G            HT
                 (UTC) (F)     (DEG/KT/KT) (MB)    (FT)
BURNS HARBOR     0840   60     190/ 11/ 13 1011.2F
MICHIGAN CITY    0840   60     170/ 11/ 13   N/A
5NW MICH CITY    0900   57 53  190/  8/ 10   N/A     1

$$

INZ004-005-014>016-021>024-231000-
NORTH CENTRAL INDIANA

CITY           SKY/WX    TMP DP  RH WIND       PRES   REMARKS
GOSHEN         LGT RAIN  60  50  69 SW6       29.88F
LOGANSPORT +   CLOUDY    57  50  77 S5        29.90S
PERU/GRISSOM   CLOUDY    58  52  80 S6        29.88F
ROCHESTER +    LGT RAIN  61  52  72 CALM      29.89F
SOUTH BEND     CLOUDY    59  52  77 SW7       29.87F
WARSAW +       CLOUDY    59  50  72 CALM      29.89F

$$

INZ006>009-017-018-025>027-231000-
NORTHEAST INDIANA

CITY           SKY/WX    TMP DP  RH WIND       PRES   REMARKS
ANGOLA *+      CLOUDY    57  46  67 SE3       29.89F
AUBURN +       CLOUDY    57  46  67 CALM      29.90F
FORT WAYNE     CLOUDY    58  49  72 S6        29.90F
HUNTINGTON +   CLOUDY    58  49  74 S3        29.90F
KENDALLVILLE + CLOUDY    57  50  77 S7        29.90S

$$

INZ028-029-035-036-043>045-051>053-231000-
WEST CENTRAL INDIANA

CITY           SKY/WX    TMP DP  RH WIND       PRES   REMARKS
CRAWFORDSVL +  CLOUDY    55  52  90 SE3       29.88F
GREENCASTLE +  CLOUDY    54  50  87 CALM      29.89F
LAFAYETTE      CLOUDY    59  49  69 CALM      29.88F
TERRE HAUTE    CLOUDY    58  51  78 CALM      29.88F

$$

INZ030>032-037>040-046>048-054>057-064-065-231000-
CENTRAL INDIANA

CITY           SKY/WX    TMP DP  RH WIND       PRES   REMARKS
CP ATTERBURY + CLOUDY    50  50 100 CALM      29.90F
FISHERS *+     CLOUDY    54  52  94 CALM      29.90F
FRANKFORT +    CLOUDY    59  53  81 CALM      29.91S
GREENWOOD *+   CLOUDY    57  49  74 CALM      29.90F
INDIANAPOLIS   CLOUDY    58  49  72 SE3       29.90F
-EAGLE CREEK   CLOUDY    58  49  72 CALM      29.89F
MT COMFORT *+  CLOUDY    55  52  88 CALM      29.91S
SHELBYVILLE    CLOUDY    58  49  72 CALM      29.89F
ZIONSVILLE +   CLOUDY    56  51  83 CALM      29.91F

$$

INZ033-034-041-042-049-050-058-059-231000-
EAST CENTRAL INDIANA

CITY           SKY/WX    TMP DP  RH WIND       PRES   REMARKS
MUNCIE         CLOUDY    60  47  61 S3        29.91F
RICHMOND +     MOCLDY    52  46  82 CALM      29.92F

$$

INZ060-061-067>069-081>083-085>088-231000-
SOUTHWEST INDIANA

CITY           SKY/WX    TMP DP  RH WIND       PRES   REMARKS
EVANSVILLE     CLOUDY    58  52  80 CALM      29.87F
HUNTINGBURG *+ MOCLDY    54  52  93 CALM      29.87F
WASHINGTON +   CLOUDY    58  49  73 CALM      29.87F

$$

INZ062-063-066-070>080-084-089>092-231000-
SOUTH CENTRAL AND SOUTHEAST INDIANA

CITY           SKY/WX    TMP DP  RH WIND       PRES   REMARKS
BEDFORD +      CLOUDY    52  46  82 CALM      29.88F
BLOOMINGTON    CLOUDY    56  50  80 CALM      29.88F
MADISON *+     MOCLDY    50  48  93 CALM      29.91F
NORTH VERNON + CLOUDY    52  48  87 CALM      29.90F
SEYMOUR +      MOCLDY    55  50  82 CALM      29.89F

$$





USA.gov is the U.S. government's official web portal to all federal, state and local government web resources and services.